Regional Weather Roundup
Issued by NWS

Home | Current Version | Previous Version | Text Only | Print | Product List | Glossary On
Versions: 1 2 3 4 5 6 7 8 9 10 11 12 13 14 15 16 17 18 19 20 21 22 23 24 25 26 27 28 29 30 31 32 33 34 35 36 37 38 39 40 41 42 43 44 45 46 47 48 49 50
493
ASUS46 KPQR 140910
RWROR

OREGON REGIONAL WEATHER ROUNDUP
NATIONAL WEATHER SERVICE PORTLAND OR
100 AM PST SUN FEB 14 2016

NOTE: "FAIR" INDICATES FEW OR NO CLOUDS BELOW 12,000 FEET WITH
NO SIGNIFICANT WEATHER AND/OR OBSTRUCTIONS TO VISIBILITY.

ORZ001>013-141000-
NORTHWEST OREGON


CITY           SKY/WX    TMP DP  RH WIND       PRES   REMARKS
ASTORIA        LGT RAIN  52  51  97 SW12      30.17R FOG
NEWPORT        RAIN      52  50  93 S22G28    30.27R
PORTLAND       CLOUDY    50  45  83 S10       30.22R
VANCOUVER WA   CLOUDY    50  45  83 S9G20     30.21R
SCAPPOOSE      CLOUDY    48  46  93 SE6       30.20R
HILLSBORO      CLOUDY    47  45  93 S12       30.21R
AURORA         LGT RAIN  49  45  86 S15G24    30.22R
MCMINNVILLE    LGT RAIN  49  49 100 CALM      30.23R
SALEM          LGT RAIN  49  45  86 S15       30.22F
CORVALLIS      CLOUDY    50  45  81 S18       30.25S
EUGENE         CLOUDY    49  45  86 S12       30.27S
$$

ORZ021-028-141000-
SOUTHWEST OREGON


CITY           SKY/WX    TMP DP  RH WIND       PRES   REMARKS
NORTH BEND     CLOUDY    54  52  94 S12G20    30.31F
BROOKINGS      LGT RAIN  47  46  97 CALM      30.41S
ROSEBURG       LGT RAIN  49  47  93 CALM      30.32F
SEXTON SUMMIT  FOG       37  37 100 S14       30.31S VSB 1/4 WCI  28
MEDFORD        CLOUDY    48  44  86 CALM      30.36S
$$

ORZ014>016-041-141000-
COLUMBIA GORGE


CITY           SKY/WX    TMP DP  RH WIND       PRES   REMARKS
TROUTDALE      LGT RAIN  48  45  89 CALM      30.23R
THE DALLES     CLOUDY    43  40  89 CALM      30.20R
$$

ORZ029>031-041-044-049-050-061>064-502-503-505>511-141000-
EASTERN OREGON


CITY           SKY/WX    TMP DP  RH WIND       PRES   REMARKS
REDMOND        CLOUDY    42  35  76 NE3       30.18F
BEND           CLOUDY    45  36  70 SW9       30.17F
PRINEVILLE     CLOUDY    39  39 100 CALM      30.20F
KLAMATH FALLS  CLOUDY    39  36  89 NW3       30.32F
LAKEVIEW       CLOUDY    39  30  70 S7        30.32S WCI  34
HERMISTON      CLOUDY    45  39  79 SW8       30.15S
PENDLETON      CLOUDY    44  40  85 W6        30.14S
JOHN DAY       LGT RAIN  41  37  84 S13       30.19S
MEACHAM        LGT RAIN  34  32  92 CALM      30.15R
LA GRANDE      CLOUDY    39  34  81 CALM      30.17R
BAKER CITY     CLOUDY    33  33 100 W3        30.17F
BURNS          CLOUDY    37  31  78 W12       30.23R WCI  29
ROME             N/A     50  30  46 SW20G29   30.16F
ONTARIO        CLOUDY    41  35  79 NW3       30.21F
$$




USA.gov is the U.S. government's official web portal to all federal, state and local government web resources and services.